User: anonymous   Login
Location: ???? ?????
(30.0052°N, 31.2891°E)
Time: 19:06:08
(UTC+00:00)
Language:

Cosmos 1371 Rocket - Orbit

View from above orbital plane
View from above orbital plane
View from above satellite
View from above satellite

Ground track
Ground track

The orbit data is extracted from the following two-line orbital elements,

1 13242U 82051B   22230.19282921  .00000127  00000-0  52335-4 0  9993
2 13242  74.0439 128.6376 0025785 227.2810 132.6173 14.36123673104625
Epoch (UTC): 18 August 2022 04:37:40
Eccentricity: 0.0025785
inclination: 74.0439°
perigee height: 753 km
apogee height: 790 km
right ascension of ascending node: 128.6376°
argument of perigee: 227.2810°
revolutions per day: 14.36123673
mean anomaly at epoch: 132.6173°
orbit number at epoch: 10462

The dashed part of the orbit path shows where the satellite is in the earth's shadow,  

DLR